Weather History for Abbotsford, BC

Change the Weather History Date:

Tuesday, November 20, 2012

  Actual Average Record
Temperature  
Mean Temperature 46 °F -  
Max Temperature 51 °F 44 °F 62 °F (2002)
Min Temperature 42 °F 33 °F 21 °F (1996)
Degree Days  
Heating Degree Days 18    
Moisture  
Dew Point 42 °F    
Average Humidity 86    
Maximum Humidity 100    
Minimum Humidity 63    
Precipitation  
Precipitation 0.16 in 0.29 in - ()
Sea Level Pressure  
Sea Level Pressure 29.62 in    
Wind  
Wind Speed 7 mph ()    
Max Wind Speed 22 mph    
Max Gust Speed 30 mph    
Visibility 12.7 miles    
Events Rain    
Averages and records for this station are not official NWS values.
T = Trace of Precipitation, MM = Missing Value Source: Averaged Metar Reports

Daily Weather History Graph

Daily Weather History Graph

Search for Another Location

Airport:

Trip Planner

Search our weather history database for the weather conditions in past years. The results will help you decide how hot, cold, wet, or windy it might be!

Date:

Astronomy

Nov. 20, 2012 Rise Set
Actual Time 7:27 AM PST 4:22 PM PST
Civil Twilight 6:52 AM PST 4:57 PM PST
Nautical Twilight 6:13 AM PST 5:36 PM PST
Astronomical Twilight 5:35 AM PST 6:14 PM PST
Moon 12:45 PM PST (11/20) No Moon Set
Length of Visible Light 10h 05m
Length of Day
8h 54m
First Quarter, 52% of the Moon is Illuminated
Nov 20
First Quarter
Nov 28
Full
Dec 6
Last Quarter
Dec 13
New
Dec 19
First Quarter

Hourly Weather History & Observations

Time (PST) Temp. Windchill Dew Point Humidity Pressure Visibility Wind Dir Wind Speed Gust Speed Precip Events Conditions
12:00 AM 42.8 °F - 41.0 °F 93% 29.68 in 10.0 mi Calm Calm - N/A   Mostly Cloudy
12:07 AM 42.8 °F 40.1 °F 41.0 °F 93% 29.68 in 6.0 mi South 4.6 mph - N/A Rain Light Rain Showers
12:37 AM 46.4 °F - 44.6 °F 93% 29.68 in 3.0 mi South 2.3 mph - N/A Rain Heavy Rain Showers
1:00 AM 44.6 °F 41.4 °F 42.8 °F 93% 29.68 in 10.0 mi North 5.8 mph - N/A   Mostly Cloudy
2:00 AM 44.6 °F 41.4 °F 44.6 °F 100% 29.68 in 10.0 mi NE 5.8 mph - N/A   Overcast
3:00 AM 44.6 °F 41.4 °F 44.6 °F 100% 29.70 in 10.0 mi NNW 5.8 mph - N/A   Overcast
4:00 AM 45 °F - 44 °F 95% 29.68 in 10 mi NNE 6.9 mph - -   Partly Cloudy
4:00 AM 44.6 °F 39.2 °F 44.6 °F 100% 29.68 in 10.0 mi NNE 10.4 mph - N/A   Mostly Cloudy
5:00 AM 44.6 °F 40.2 °F 42.8 °F 93% 29.68 in 10.0 mi NNE 8.1 mph - N/A Rain Light Rain Showers
5:16 AM 44.6 °F 39.2 °F 42.8 °F 93% 29.67 in 10.0 mi NNE 10.4 mph - N/A   Mostly Cloudy
6:00 AM 44.6 °F 41.4 °F 42.8 °F 93% 29.67 in 10.0 mi ENE 5.8 mph - N/A   Overcast
6:23 AM 44.6 °F 40.7 °F 42.8 °F 93% 29.67 in 10.0 mi NE 6.9 mph - N/A   Mostly Cloudy
7:00 AM 42.8 °F 38.6 °F 42.8 °F 100% 29.65 in 20.0 mi ENE 6.9 mph - N/A   Mostly Cloudy
8:00 AM 42.8 °F 37.5 °F 41.0 °F 93% 29.63 in 25.0 mi NE 9.2 mph - N/A   Mostly Cloudy
9:00 AM 44.6 °F 40.2 °F 42.8 °F 93% 29.60 in 25.0 mi NE 8.1 mph - N/A   Mostly Cloudy
10:00 AM 45 °F - 42 °F 87% 29.56 in 28 mi ENE 4.6 mph - -   Partly Cloudy
10:00 AM 44.6 °F 42.2 °F 42.8 °F 93% 29.56 in 30.0 mi ENE 4.6 mph - N/A   Mostly Cloudy
11:00 AM 44.6 °F 40.2 °F 41.0 °F 87% 29.53 in 25.0 mi NE 8.1 mph - N/A   Overcast
12:00 PM 44.6 °F 40.2 °F 42.8 °F 93% 29.52 in 25.0 mi North 8.1 mph - N/A Rain Light Rain Showers
12:39 PM 46.4 °F 41.1 °F 41.0 °F 81% 29.50 in 20.0 mi East 11.5 mph 17.3 mph N/A Rain Light Rain Showers
1:00 PM 46.4 °F 39.0 °F 41.0 °F 81% 29.52 in 20.0 mi East 19.6 mph - N/A Rain Light Rain Showers
2:00 PM 46.4 °F 42.4 °F 41.0 °F 81% 29.53 in 20.0 mi ESE 8.1 mph - N/A Rain Light Rain Showers
3:00 PM 48.2 °F - 42.8 °F 82% 29.54 in 20.0 mi ESE 5.8 mph - N/A   Mostly Cloudy
4:00 PM 51 °F - 42 °F 63% 29.57 in 25 mi South 18.4 mph - -   Partly Cloudy
4:00 PM 51.8 °F - 42.8 °F 71% 29.57 in 25.0 mi South 19.6 mph 29.9 mph N/A   Mostly Cloudy
4:51 PM 50.0 °F - 41.0 °F 71% 29.60 in 20.0 mi South 16.1 mph 25.3 mph N/A   Mostly Cloudy
5:00 PM 50.0 °F - 41.0 °F 71% 29.60 in 15.0 mi South 18.4 mph 27.6 mph N/A   Mostly Cloudy
6:00 PM 50.0 °F - 39.2 °F 66% 29.60 in 15.0 mi South 17.3 mph 25.3 mph N/A   Mostly Cloudy
6:21 PM 50.0 °F - 39.2 °F 66% 29.59 in 15.0 mi South 21.9 mph 29.9 mph N/A Rain Light Rain Showers
7:00 PM 50.0 °F - 39.2 °F 66% 29.59 in 15.0 mi South 16.1 mph 25.3 mph N/A   Mostly Cloudy
7:25 PM 50.0 °F - 39.2 °F 66% 29.60 in 15.0 mi South 17.3 mph 29.9 mph N/A Rain Light Rain Showers
8:00 PM 48.2 °F - 42.8 °F 82% 29.62 in 10.0 mi SSW 17.3 mph 29.9 mph N/A Rain Light Rain Showers
10:00 PM 43 °F - 41 °F 91% 29.65 in 10 mi NW 6.9 mph - - Rain Light Rain Showers
10:00 PM 42.8 °F 41.1 °F 41.0 °F 93% 29.65 in 10.0 mi NNW 3.5 mph - N/A Rain Light Rain Showers
11:00 PM 42.8 °F 38.6 °F 41.0 °F 93% 29.65 in 10.0 mi NNE 6.9 mph - N/A   Overcast